Location: Verbania
(45.9300°N, 8.5300°E)
Time: 04:31:48
(UTC+01:00)

ISS - Visible Passes

Search period start: 23 January 2019 00:00
Search period end: 02 February 2019 00:00
Orbit: 404 x 411 km, 51.6° (Epoch: 23 January)

Date Brightness Start Highest point End Pass type
(mag) Time Alt. Az. Time Alt. Az. Time Alt. Az.
23 Jan -2.4 18:37:35 10° SSW 18:40:20 25° SE 18:41:04 23° ESE visible
23 Jan -0.5 20:13:24 10° WSW 20:13:48 13° WSW 20:13:48 13° WSW visible
24 Jan -3.4 19:22:00 10° WSW 19:24:46 60° WSW 19:24:46 60° WSW visible
25 Jan -3.5 18:30:45 10° SW 18:33:58 53° SSE 18:35:40 24° ENE visible
25 Jan -0.8 20:07:29 10° W 20:08:24 17° WNW 20:08:24 17° WNW visible
26 Jan -3.3 19:15:54 10° W 19:19:08 51° NNW 19:19:13 51° NNW visible
27 Jan -3.7 18:24:24 10° WSW 18:27:42 75° NNW 18:30:00 18° ENE visible
27 Jan -1.0 20:01:36 10° WNW 20:02:43 18° WNW 20:02:43 18° WNW visible
28 Jan -2.8 19:09:58 10° W 19:13:02 35° NNW 19:13:26 33° N visible
29 Jan -3.1 18:18:19 10° W 18:21:30 44° NNW 18:24:08 14° NE visible
29 Jan -1.2 19:55:36 10° WNW 19:56:51 19° NW 19:56:51 19° NW visible
30 Jan -2.5 19:03:59 10° WNW 19:06:56 29° N 19:07:31 27° NNE visible
31 Jan -2.6 18:12:19 10° WNW 18:15:20 32° N 18:18:11 11° NE visible
31 Jan -1.6 19:49:23 10° NW 19:50:54 21° NW 19:50:54 21° NW visible
01 Feb -2.6 18:57:51 10° WNW 19:00:49 29° N 19:01:34 26° NNE visible
